This is the latest recevied weather packets stored in our database for station/object AE5EW. If no packets are shown the sender has not sent any weather packets the latest 10 day(s).
| Time | Temp. | Humidity | Pressure | Rain* | Wind** | Luminosity | Snow |
|---|---|---|---|---|---|---|---|
| 1788029857 | 30.56° C | 68% | 1019.7 hPa | 0 mm | - | - | - |
| 1788029552 | 31.11° C | 69% | 1019.9 hPa | 0 mm | - | - | - |
| 1788029251 | 31.11° C | 71% | 1020 hPa | 0 mm | - | - | - |
| 1788028946 | 31.67° C | 66% | 1019.8 hPa | 0 mm | - | - | - |
| 1788028646 | 31.67° C | 68% | 1020 hPa | 0 mm | - | - | - |
| 1788028341 | 31.11° C | 67% | 1020.1 hPa | 0 mm | - | - | - |
| 1788028036 | 30.56° C | 70% | 1020 hPa | 0 mm | - | - | - |
| 1788027732 | 30.56° C | 70% | 1020.1 hPa | 0 mm | - | - | - |
| 1788027431 | 30.56° C | 67% | 1020 hPa | 0 mm | - | - | - |
| 1788027126 | 30.56° C | 68% | 1020 hPa | 0 mm | - | - | - |
| 1788026825 | 31.11° C | 68% | 1020 hPa | 0 mm | - | - | - |
| 1788026521 | 30.56° C | 65% | 1020.1 hPa | 0 mm | - | - | - |
| 1788026221 | 30.56° C | 68% | 1020.1 hPa | 0 mm | - | - | - |
| 1788025920 | 30° C | 68% | 1020.3 hPa | 0 mm | - | - | - |
| 1788025615 | 30.56° C | 69% | 1020 hPa | 0 mm | - | - | - |
| 1788025314 | 31.11° C | 70% | 1020 hPa | 0 mm | - | - | - |
| 1788025014 | 30.56° C | 70% | 1020.1 hPa | 0 mm | - | - | - |
| 1788024709 | 31.11° C | 71% | 1020.2 hPa | 0 mm | - | - | - |
| 1788024405 | 30.56° C | 71% | 1020.2 hPa | 0 mm | - | - | - |
| 1788024100 | 30.56° C | 73% | 1020.3 hPa | 0 mm | - | - | - |
| 1788023795 | 30.56° C | 72% | 1020.4 hPa | 0 mm | - | - | - |
| 1788023491 | 30.56° C | 72% | 1020.3 hPa | 0 mm | - | - | - |
| 1788023186 | 31.11° C | 69% | 1020.3 hPa | 0 mm | - | - | - |
| 1788022886 | 31.11° C | 68% | 1020.1 hPa | 0 mm | - | - | - |
| 1788022583 | 31.11° C | 70% | 1020.2 hPa | 0 mm | - | - | - |
* Rain latest hour (hover to see other rain measurements)
** Current wind speed in m/s (hover to see current wind gust speed)